Home > Time Zones > World Clock > Weather > Iran > Ahvaz > Past weeks

Flag for Iran Weather past 2 weeks in Ahvaz, Iran

Now
59 °F

Sunny.


Feels Like: 59 °F
Forecast: 61 / 84 °F
Wind: No wind

Location: Ahwaz

Current Time: Oct 22, 2014 at 7:43:28 AM

Latest Report: Oct 22, 2014 at 6:55 AM


Visibility: 4 mi

Pressure: 30.07 "Hg

Humidity: 94%

Dew point: 57 °F

Location of AhvazLocation

Historic Weather in Ahvaz — Graph

°F

Ahvaz temperature yesterday

Maximum temperature yesterday: 86 °F (at 12:00 AM)
Minimum temperature yesterday: 64 °F (at 6:30 AM)
Average temperature yesterday: 73 °F

Past Weeks' High & Low Weather Summary

 TemperatureHumidityPressure
High102 °F (Oct 7, 2:00 PM)94% (Oct 22, 4:30 AM)30.04 "Hg (Oct 22, 4:30 AM)
Low59 °F (Oct 22, 4:30 AM)10% (Oct 8, 2:30 PM)29.68 "Hg (Oct 20, 4:30 PM)
Average84 °F38%29.87 "Hg
* Reported Oct 7 5:30 AM — Oct 22 5:30 AM, Ahvaz, Weather by CustomWeather, © 2014

Note: Actual official high and low records may vary slightly from our data, if they occured in-between our weather recording intervals... More about our weather records

Advertising

Ahvaz weather history for previous 24 hours

 ConditionsComfort  
Time TempWeatherWind HumidityBarometerVisibility
5:30 AM
Oct 22
59 °FClear.No wind94%30.04 "Hg4 mi
4:30 AM59 °FClear.No wind94%30.04 "Hg4 mi
1:30 AM64 °FClear.No wind73%30.04 "Hg10 mi
12:30 AM64 °FClear.No wind78%30.04 "Hg10 mi
11:55 PM
Oct 21
64 °FClear.No wind78%30.04 "Hg10 mi
11:30 PM66 °FClear.No wind73%30.04 "Hg10 mi
10:55 PM68 °FClear.No wind69%30.04 "Hg10 mi
10:30 PM70 °FClear.No wind60%30.04 "Hg10 mi
9:55 PM72 °FClear.5 mph57%30.01 "Hg10 mi
9:30 PM72 °FClear.5 mph57%30.01 "Hg10 mi
8:55 PM72 °FClear.5 mph57%29.98 "Hg10 mi
8:30 PM72 °FClear.7 mph57%29.98 "Hg10 mi
7:55 PM73 °FClear.7 mph53%29.98 "Hg10 mi
7:30 PM73 °FClear.5 mph53%29.98 "Hg10 mi
6:55 PM75 °FClear.7 mph50%29.95 "Hg10 mi
6:30 PM75 °FClear.7 mph50%29.95 "Hg10 mi
5:55 PM75 °FSunny.7 mph50%29.92 "Hg10 mi
5:30 PM75 °FSunny.7 mph47%29.92 "Hg10 mi
4:55 PM77 °FPassing clouds.7 mph47%29.89 "HgN/A
4:30 PM79 °FPassing clouds.7 mph45%29.89 "HgN/A
3:55 PM79 °FPassing clouds.5 mph48%29.89 "HgN/A
3:30 PM79 °FPassing clouds.5 mph48%29.89 "HgN/A
2:55 PM79 °FSunny.7 mph48%29.89 "Hg10 mi
2:30 PM79 °FSunny.7 mph48%29.89 "Hg10 mi
2:00 PM79 °FSunny.7 mph48%29.89 "Hg10 mi
1:30 PM79 °FSunny.5 mph45%29.92 "Hg10 mi
1:00 PM79 °FSunny.12 mph51%29.89 "Hg10 mi
12:30 PM77 °FSunny.9 mph51%29.92 "Hg10 mi
12:00 PM79 °FSunny.12 mph58%29.92 "Hg10 mi
11:30 AM77 °FSunny.5 mph61%29.92 "Hg10 mi
11:00 AM77 °FSunny.7 mph57%29.89 "Hg10 mi
10:30 AM73 °FSunny.9 mph69%29.89 "Hg10 mi
10:00 AM73 °FPassing clouds.7 mph65%29.89 "HgN/A
9:30 AM72 °FScattered clouds.12 mph61%29.92 "HgN/A
9:00 AM70 °FBroken clouds.5 mph73%29.92 "HgN/A
8:30 AM66 °FBroken clouds.9 mph78%29.92 "HgN/A
8:00 AM68 °FBroken clouds.9 mph73%29.77 "HgN/A
7:30 AM64 °FBroken clouds.12 mph83%29.92 "Hg5 mi
7:00 AM64 °FBroken clouds.12 mph83%29.86 "Hg5 mi
Weather by CustomWeather, © 2014

See weather overviewHow to use our weather pages